Change the Weather History Date:

Tuesday, February 4, 2014

  Actual Average (KCHS) Record (KCHS)
Temperature  
Mean Temperature 54 °F 50 °F  
Max Temperature 59 °F 61 °F 83 °F (1957)
Min Temperature 48 °F 39 °F 19 °F (1951)
Degree Days  
Heating Degree Days 12 15  
Month to date heating degree days 62  
Since 1 July heating degree days 1321  
Cooling Degree Days 0 0  
Month to date cooling degree days 0  
Year to date cooling degree days 2  
Growing Degree Days 4 (Base 50)    
Moisture  
Dew Point 48 °F    
Average Humidity 89    
Maximum Humidity 100    
Minimum Humidity 77    
Precipitation  
Precipitation 0.00 in 0.12 in 1.63 in (1959)
Month to date precipitation 0.45  
Year to date precipitation 4.16  
Sea Level Pressure  
Sea Level Pressure 30.18 in    
Wind  
Wind Speed 9 mph (NE)    
Max Wind Speed 18 mph    
Max Gust Speed 25 mph    
Visibility 6 miles    
Events Fog    
T = Trace of Precipitation, MM = Missing Value Source: NWS Daily Summary

Daily Weather History Graph

Daily Weather History Graph

Search for Another Location

Airport or City:

Trip Planner

Search our weather history database for the weather conditions in past years. The results will help you decide how hot, cold, wet, or windy it might be!

Date:

Astronomy

Feb. 04, 2014 Rise Set
Actual Time 7:12 AM EST 5:55 PM EST
Civil Twilight 6:46 AM EST 6:21 PM EST
Nautical Twilight 6:17 AM EST 6:50 PM EST
Astronomical Twilight 5:48 AM EST 7:19 PM EST
Moon 10:09 AM EST (2/4) 11:26 PM EST (2/4)
Length of Visible Light 11h 34m
Length of Day
10h 43m
Waxing Crescent, 29% of the Moon is Illuminated
Feb 4
Waxing Crescent
Feb 6
First Quarter
Feb 14
Full
Feb 22
Last Quarter
Mar 1
New

Hourly Weather History & Observations

Time (EST) Temp. Dew Point Humidity Pressure Visibility Wind Dir Wind Speed Gust Speed Precip Events Conditions
12:15 AM 57.2 °F 57.2 °F 100% 30.12 in 0.2 mi Calm Calm - 0.00 in Fog Fog
12:35 AM 59.0 °F 59.0 °F 100% 30.13 in 1.5 mi Calm Calm - 0.00 in   Mostly Cloudy
12:55 AM 59.0 °F 59.0 °F 100% 30.13 in 3.0 mi NE 11.5 mph 23.0 mph 0.00 in   Overcast
1:15 AM 55.4 °F 55.4 °F 100% 30.15 in 10.0 mi ENE 16.1 mph 21.9 mph 0.00 in   Overcast
1:35 AM 55.4 °F 51.8 °F 88% 30.15 in 10.0 mi NE 12.7 mph 19.6 mph 0.00 in   Overcast
1:55 AM 55.4 °F 51.8 °F 88% 30.16 in 10.0 mi ENE 13.8 mph 17.3 mph 0.00 in   Overcast
2:15 AM 53.6 °F 50.0 °F 88% 30.17 in 10.0 mi NE 13.8 mph - 0.00 in   Overcast
2:35 AM 53.6 °F 48.2 °F 82% 30.17 in 10.0 mi NE 12.7 mph 23.0 mph 0.00 in   Overcast
2:55 AM 53.6 °F 48.2 °F 82% 30.17 in 10.0 mi NE 13.8 mph 18.4 mph 0.00 in   Overcast
3:15 AM 53.6 °F 48.2 °F 82% 30.18 in 10.0 mi NE 12.7 mph 17.3 mph 0.00 in   Overcast
3:35 AM 53.6 °F 48.2 °F 82% 30.18 in 10.0 mi NE 11.5 mph 16.1 mph 0.00 in   Overcast
3:55 AM 53.6 °F 46.4 °F 77% 30.18 in 10.0 mi NE 10.4 mph 21.9 mph 0.00 in   Overcast
4:15 AM 51.8 °F 46.4 °F 82% 30.18 in 10.0 mi ENE 11.5 mph 19.6 mph 0.00 in   Overcast
4:35 AM 51.8 °F 46.4 °F 82% 30.18 in 10.0 mi ENE 15.0 mph - 0.00 in   Overcast
4:55 AM 51.8 °F 46.4 °F 82% 30.19 in 10.0 mi NE 12.7 mph 20.7 mph 0.00 in   Overcast
5:15 AM 51.8 °F 46.4 °F 82% 30.19 in 10.0 mi NE 15.0 mph 20.7 mph 0.00 in   Overcast
5:35 AM 51.8 °F 46.4 °F 82% 30.21 in 10.0 mi NE 11.5 mph 18.4 mph 0.00 in   Overcast
5:55 AM 51.8 °F 46.4 °F 82% 30.21 in 10.0 mi ENE 13.8 mph 19.6 mph 0.00 in   Overcast
6:15 AM 51.8 °F 46.4 °F 82% 30.23 in 10.0 mi NE 15.0 mph 19.6 mph 0.00 in   Overcast
6:35 AM 50.0 °F 46.4 °F 87% 30.23 in 10.0 mi NE 13.8 mph 19.6 mph 0.00 in   Overcast
6:55 AM 50.0 °F 46.4 °F 87% 30.23 in 10.0 mi NE 12.7 mph 20.7 mph 0.00 in   Overcast
7:15 AM 50.0 °F 46.4 °F 87% 30.24 in 10.0 mi ENE 12.7 mph - 0.00 in   Overcast
7:35 AM 50.0 °F 46.4 °F 87% 30.24 in 10.0 mi NE 16.1 mph 23.0 mph 0.00 in   Overcast
7:55 AM 48.2 °F 46.4 °F 93% 30.25 in 9.0 mi ENE 13.8 mph 17.3 mph 0.00 in   Overcast
8:15 AM 48.2 °F 46.4 °F 93% 30.24 in 9.0 mi NE 16.1 mph 21.9 mph 0.00 in   Overcast
8:35 AM 48.2 °F 46.4 °F 93% 30.24 in 8.0 mi NE 13.8 mph 23.0 mph 0.00 in   Overcast
8:55 AM 48.2 °F 46.4 °F 93% 30.25 in 7.0 mi NE 13.8 mph 21.9 mph 0.00 in   Overcast
9:15 AM 48.2 °F 46.4 °F 93% 30.26 in 7.0 mi NE 13.8 mph 20.7 mph 0.00 in   Overcast
9:35 AM 48.2 °F 46.4 °F 93% 30.27 in 8.0 mi NE 12.7 mph 17.3 mph 0.00 in   Overcast
9:55 AM 48.2 °F 46.4 °F 93% 30.26 in 7.0 mi NE 16.1 mph 19.6 mph 0.00 in   Overcast
10:15 AM 48.2 °F 46.4 °F 93% 30.27 in 7.0 mi NE 16.1 mph 20.7 mph 0.00 in   Overcast
10:35 AM 48.2 °F 46.4 °F 93% 30.27 in 5.0 mi NE 13.8 mph - 0.00 in   Overcast
10:55 AM 48.2 °F 46.4 °F 93% 30.27 in 6.0 mi NE 13.8 mph - 0.00 in   Overcast
11:15 AM 50.0 °F 46.4 °F 87% 30.26 in 7.0 mi ENE 13.8 mph - 0.00 in   Overcast
11:35 AM 50.0 °F 46.4 °F 87% 30.26 in 7.0 mi NE 12.7 mph 25.3 mph 0.00 in   Overcast
11:55 AM 50.0 °F 46.4 °F 87% 30.24 in 6.0 mi NE 18.4 mph 23.0 mph 0.00 in   Overcast
12:15 PM 50.0 °F 46.4 °F 87% 30.24 in 7.0 mi NE 10.4 mph - 0.00 in   Overcast
12:35 PM 51.8 °F 46.4 °F 82% 30.23 in 7.0 mi NE 9.2 mph - 0.00 in   Overcast
12:55 PM 51.8 °F 46.4 °F 82% 30.22 in 8.0 mi NE 8.1 mph - 0.00 in   Overcast
1:15 PM 53.6 °F 46.4 °F 77% 30.21 in 8.0 mi North 10.4 mph - 0.00 in   Overcast
1:35 PM 53.6 °F 46.4 °F 77% 30.19 in 9.0 mi NNE 9.2 mph - 0.00 in   Overcast
1:55 PM 53.6 °F 46.4 °F 77% 30.19 in 9.0 mi NE 8.1 mph - 0.00 in   Overcast
2:15 PM 51.8 °F 46.4 °F 82% 30.18 in 7.0 mi NNE 9.2 mph - 0.00 in   Overcast
2:35 PM 53.6 °F 46.4 °F 77% 30.17 in 8.0 mi NNE 10.4 mph - 0.00 in   Overcast
2:55 PM 53.6 °F 48.2 °F 82% 30.16 in 9.0 mi NE 9.2 mph - 0.00 in   Overcast
3:15 PM 53.6 °F 48.2 °F 82% 30.16 in 9.0 mi NE 8.1 mph - 0.00 in   Overcast
3:35 PM 53.6 °F 48.2 °F 82% 30.15 in 9.0 mi NE 8.1 mph - 0.00 in   Overcast
3:55 PM 53.6 °F 48.2 °F 82% 30.16 in 8.0 mi NE 8.1 mph - 0.00 in   Overcast
4:15 PM 53.6 °F 48.2 °F 82% 30.16 in 9.0 mi NE 5.8 mph - 0.00 in   Overcast
4:35 PM 51.8 °F 48.2 °F 88% 30.16 in 8.0 mi NE 8.1 mph - 0.00 in   Overcast
4:55 PM 51.8 °F 48.2 °F 88% 30.15 in 8.0 mi Calm Calm - 0.00 in   Overcast
5:15 PM 51.8 °F 48.2 °F 88% 30.15 in 7.0 mi NE 9.2 mph - 0.00 in   Overcast
5:35 PM 51.8 °F 48.2 °F 88% 30.15 in 8.0 mi ENE 9.2 mph - 0.00 in   Overcast
5:55 PM 51.8 °F 48.2 °F 88% 30.15 in 7.0 mi ENE 8.1 mph - 0.00 in   Overcast
6:35 PM 51.8 °F 48.2 °F 88% 30.14 in 2.5 mi Calm Calm - 0.00 in   Overcast
6:55 PM 50.0 °F 48.2 °F 94% 30.15 in 3.0 mi ENE 4.6 mph - 0.00 in   Overcast
7:15 PM 50.0 °F 48.2 °F 94% 30.15 in 2.0 mi ENE 9.2 mph - 0.00 in   Overcast
7:35 PM 50.0 °F 48.2 °F 94% 30.15 in 1.2 mi NNE 5.8 mph - 0.00 in   Overcast
7:55 PM 50.0 °F 48.2 °F 94% 30.14 in 2.0 mi Calm Calm - 0.00 in   Overcast
8:15 PM 50.0 °F 50.0 °F 100% 30.14 in 2.5 mi Calm Calm - 0.00 in   Overcast
8:35 PM 50.0 °F 48.2 °F 94% 30.13 in 1.0 mi NE 6.9 mph - 0.00 in   Overcast
8:55 PM 50.0 °F 48.2 °F 94% 30.12 in 1.0 mi Calm Calm - 0.00 in   Overcast
9:15 PM 50.0 °F 48.2 °F 94% 30.12 in 0.5 mi NE 3.5 mph - 0.00 in Fog Fog
9:35 PM 48.2 °F 48.2 °F 100% 30.13 in 0.5 mi Calm Calm - 0.00 in Fog Fog
9:55 PM 48.2 °F 48.2 °F 100% 30.13 in 0.2 mi Calm Calm - 0.00 in Fog Fog
10:15 PM 48.2 °F 48.2 °F 100% 30.12 in 0.2 mi Calm Calm - 0.00 in Fog Fog
10:35 PM 48.2 °F 48.2 °F 100% 30.11 in 0.2 mi Calm Calm - 0.00 in Fog Fog
10:55 PM 48.2 °F 48.2 °F 100% 30.10 in 0.2 mi Calm Calm - 0.00 in Fog Fog
11:15 PM 48.2 °F 48.2 °F 100% 30.09 in 0.2 mi Calm Calm - 0.00 in Fog Fog
11:35 PM 48.2 °F 48.2 °F 100% 30.09 in 0.2 mi Calm Calm - 0.00 in Fog Fog
11:55 PM 48.2 °F 48.2 °F 100% 30.08 in 0.2 mi Calm Calm - 0.00 in Fog Fog